(509820) = 2008 WD47

Discovered at Kitt Peak on 2008-10-26 by Spacewatch.

Orbit

Orbit type: Main Belt

Note: WebGL enabled browser required.

epoch2023-02-25.0
epoch JD2460000.5
perihelion date2022-03-29.84403
perihelion JD2459668.34403
argument of perihelion (°)182.15765
ascending node (°)243.30852
inclination (°)4.56083
eccentricity0.1279159
perihelion distance (AU)2.3622598
Tisserand w.r.t. Jupiter3.3
ΔV w.r.t. Earth (km/sec)9.7
semimajor axis (AU)2.7087523
mean anomaly (°)73.43312
mean daily motion (°/day)0.22108020
aphelion distance (AU)3.055
period (years)4.46
P-vector [x]0.41533695
P-vector [y]0.83579008
P-vector [z]0.35909631
Q-vector [x]-0.90688917
Q-vector [y]0.41127023
Q-vector [z]0.09169965
absolute magnitude17.79
phase slope0.15
uncertainty0
referenceMPEC 2023-F48
observations used129
oppositions9
arc length (days)5256
first opposition used2008
last opposition used2023
residual rms (arc-secs)0.72
perturbers coarse indicatorM-v
perturbers precise indicator003Ek
first observation date used2008-10-26.0
last observation date used2023-03-18.0
computer nameMPCLINUX
JD of orbit computation2458132.207151
perihelion JD uncertainty (days)1.2585E-04
argument of perihelion uncertainty (°)6.1192E-05
ascending node uncertainty (°)5.5141E-05
inclination uncertainty (°)5.6785E-06
eccentricity uncertainty 5.0035E-08
perihelion distance uncertainty (AU)1.3533E-07
Minimum Orbit Intersection Distances (in AU)
for orbit epoch: 2460000.5, reference: E2023-F48
Mercury2.0531
Venus1.64097
Earth1.37453
Mars0.82261
Jupiter2.23295
Saturn6.64842
Uranus15.6293
Neptune27.3317

Observations

132 total observations over interval: 2008 10 26.42552 – 2023 03 18.392844
These data are available for download (format description).

